Location: Wildcat Hills Observatory
(41.6350°N, 103.6812°W)
Time: 22:58:31
(UTC-06:00)

CZ-2C R/B - Pass Details

Date: 23 June 2018
Orbit: 703 x 909 km, 98.2° (Epoch: 17 July)

Event Time Altitude Azimuth Distance (km) Brightness Sun altitude
Exits shadow 23:00:36 34° 164° (SSE) 1,439 3.9 -19.6°
Maximum altitude 23:03:17 88° 77° (ENE) 911 3.3 -19.8°
Drops below altitude 10° 23:09:03 10° 348° (NNW) 2,562 6.8 -20.3°
Sets 23:11:26 0° 348° (NNW) 3,486 7.8 -20.5°
